TimeEDT,TemperatureF,Dew PointF,Humidity,Sea Level PressureIn,VisibilityMPH,Wind Direction,Wind SpeedMPH,Gust SpeedMPH,PrecipitationIn,Events,Conditions,WindDirDegrees,DateUTC
12:15 AM,75.2,73.4,94,30.15,10.0,Calm,Calm,-,N/A,,Clear,0,2013-07-18 04:15:00
12:35 AM,75.2,73.4,94,30.14,10.0,Calm,Calm,-,N/A,,Clear,0,2013-07-18 04:35:00
12:55 AM,75.2,73.4,94,30.14,10.0,Calm,Calm,-,N/A,,Clear,0,2013-07-18 04:55:00
1:15 AM,73.4,73.4,100,30.14,10.0,Calm,Calm,-,N/A,,Clear,0,2013-07-18 05:15:00
1:35 AM,73.4,73.4,100,30.14,7.0,Calm,Calm,-,N/A,,Clear,0,2013-07-18 05:35:00
1:55 AM,73.4,73.4,100,30.13,7.0,Calm,Calm,-,N/A,,Clear,0,2013-07-18 05:55:00
2:15 AM,73.4,73.4,100,30.13,10.0,Calm,Calm,-,N/A,,Scattered Clouds,0,2013-07-18 06:15:00
2:35 AM,73.4,73.4,100,30.13,10.0,Calm,Calm,-,N/A,,Scattered Clouds,0,2013-07-18 06:35:00
2:55 AM,73.4,73.4,100,30.13,7.0,Calm,Calm,-,N/A,,Scattered Clouds,0,2013-07-18 06:55:00
3:15 AM,73.4,73.4,100,30.12,7.0,Calm,Calm,-,N/A,,Mostly Cloudy,0,2013-07-18 07:15:00
3:35 AM,73.4,73.4,100,30.12,7.0,Calm,Calm,-,N/A,,Overcast,0,2013-07-18 07:35:00
3:55 AM,73.4,73.4,100,30.12,10.0,Calm,Calm,-,N/A,,Overcast,0,2013-07-18 07:55:00
4:15 AM,73.4,73.4,100,30.11,7.0,Calm,Calm,-,N/A,,Overcast,0,2013-07-18 08:15:00
4:35 AM,73.4,73.4,100,30.11,7.0,Calm,Calm,-,N/A,,Scattered Clouds,0,2013-07-18 08:35:00
4:55 AM,73.4,73.4,100,30.12,5.0,Calm,Calm,-,N/A,,Mostly Cloudy,0,2013-07-18 08:55:00
5:15 AM,73.4,73.4,100,30.12,4.0,Calm,Calm,-,N/A,,Overcast,0,2013-07-18 09:15:00
5:35 AM,73.4,73.4,100,30.12,7.0,Calm,Calm,-,N/A,,Scattered Clouds,0,2013-07-18 09:35:00
5:55 AM,73.4,73.4,100,30.12,7.0,Calm,Calm,-,N/A,,Clear,0,2013-07-18 09:55:00
6:15 AM,73.4,73.4,100,30.12,3.0,Calm,Calm,-,N/A,,Clear,0,2013-07-18 10:15:00
6:35 AM,73.4,73.4,100,30.13,7.0,Calm,Calm,-,N/A,,Clear,0,2013-07-18 10:35:00
6:55 AM,73.4,73.4,100,30.13,7.0,Calm,Calm,-,N/A,,Clear,0,2013-07-18 10:55:00
7:15 AM,75.2,75.2,100,30.13,10.0,Calm,Calm,-,N/A,,Clear,0,2013-07-18 11:15:00
7:35 AM,77.0,77.0,100,30.14,10.0,Calm,Calm,-,N/A,,Clear,0,2013-07-18 11:35:00
7:55 AM,77.0,77.0,100,30.13,10.0,Calm,Calm,-,N/A,,Clear,0,2013-07-18 11:55:00
8:15 AM,78.8,77.0,94,30.13,10.0,Calm,Calm,-,N/A,,Clear,0,2013-07-18 12:15:00
8:35 AM,80.6,75.2,84,30.14,10.0,Calm,Calm,-,N/A,,Clear,0,2013-07-18 12:35:00
8:55 AM,82.4,75.2,79,30.14,10.0,Calm,Calm,-,N/A,,Clear,0,2013-07-18 12:55:00
9:15 AM,82.4,75.2,79,30.13,10.0,Calm,Calm,-,N/A,,Clear,0,2013-07-18 13:15:00
9:35 AM,82.4,73.4,74,30.13,10.0,Calm,Calm,-,N/A,,Clear,0,2013-07-18 13:35:00
9:55 AM,84.2,73.4,70,30.13,10.0,Calm,Calm,-,N/A,,Clear,0,2013-07-18 13:55:00
10:15 AM,86.0,73.4,66,30.14,10.0,Calm,Calm,-,N/A,,Clear,0,2013-07-18 14:15:00
10:35 AM,86.0,73.4,66,30.14,10.0,South,3.5,-,N/A,,Clear,190,2013-07-18 14:35:00
10:55 AM,87.8,73.4,62,30.14,10.0,Calm,Calm,-,N/A,,Clear,0,2013-07-18 14:55:00
11:15 AM,87.8,73.4,62,30.14,10.0,Calm,Calm,-,N/A,,Clear,0,2013-07-18 15:15:00
11:35 AM,87.8,73.4,62,30.14,10.0,Calm,Calm,-,N/A,,Clear,0,2013-07-18 15:35:00
11:55 AM,89.6,71.6,55,30.13,10.0,Calm,Calm,-,N/A,,Clear,0,2013-07-18 15:55:00
12:15 PM,89.6,71.6,55,30.13,10.0,Calm,Calm,-,N/A,,Mostly Cloudy,0,2013-07-18 16:15:00
12:35 PM,89.6,71.6,55,30.13,10.0,Calm,Calm,-,N/A,,Scattered Clouds,0,2013-07-18 16:35:00
12:55 PM,89.6,71.6,55,30.12,10.0,South,3.5,-,N/A,,Clear,170,2013-07-18 16:55:00
1:15 PM,91.4,71.6,52,30.12,10.0,WSW,3.5,-,N/A,,Clear,240,2013-07-18 17:15:00
1:35 PM,91.4,71.6,52,30.12,10.0,South,3.5,-,N/A,,Scattered Clouds,190,2013-07-18 17:35:00
1:55 PM,89.6,71.6,55,30.11,10.0,Calm,Calm,-,N/A,,Scattered Clouds,0,2013-07-18 17:55:00
2:15 PM,91.4,71.6,52,30.10,10.0,SSW,3.5,-,N/A,,Scattered Clouds,200,2013-07-18 18:15:00
2:35 PM,91.4,71.6,52,30.09,10.0,South,3.5,-,N/A,,Clear,180,2013-07-18 18:35:00
2:55 PM,89.6,69.8,52,30.09,10.0,Calm,Calm,-,N/A,,Clear,0,2013-07-18 18:55:00
3:15 PM,91.4,69.8,49,30.08,10.0,Calm,Calm,-,N/A,,Clear,0,2013-07-18 19:15:00
3:35 PM,91.4,69.8,49,30.07,10.0,SSE,5.8,-,N/A,,Scattered Clouds,160,2013-07-18 19:35:00
3:55 PM,91.4,71.6,52,30.07,10.0,SSW,4.6,-,N/A,,Scattered Clouds,200,2013-07-18 19:55:00
4:15 PM,91.4,71.6,52,30.07,10.0,SSE,5.8,-,N/A,,Scattered Clouds,160,2013-07-18 20:15:00
4:35 PM,91.4,71.6,52,30.06,10.0,South,5.8,-,N/A,,Clear,190,2013-07-18 20:35:00
4:55 PM,89.6,71.6,55,30.06,10.0,South,5.8,-,N/A,,Clear,190,2013-07-18 20:55:00
5:15 PM,89.6,73.4,59,30.05,10.0,South,10.4,-,N/A,,Clear,190,2013-07-18 21:15:00
6:15 PM,87.8,73.4,62,30.05,10.0,South,4.6,-,N/A,,Mostly Cloudy,180,2013-07-18 22:15:00
6:35 PM,86.0,73.4,66,30.06,10.0,WSW,4.6,-,N/A,,Mostly Cloudy,240,2013-07-18 22:35:00
6:55 PM,84.2,73.4,70,30.06,10.0,SW,4.6,-,N/A,,Mostly Cloudy,220,2013-07-18 22:55:00
7:15 PM,82.4,73.4,74,30.06,10.0,SW,3.5,-,N/A,,Scattered Clouds,220,2013-07-18 23:15:00
7:35 PM,82.4,73.4,74,30.07,10.0,Calm,Calm,-,N/A,,Clear,0,2013-07-18 23:35:00
7:55 PM,80.6,73.4,79,30.07,10.0,Calm,Calm,-,N/A,,Clear,0,2013-07-18 23:55:00
8:15 PM,78.8,75.2,89,30.07,10.0,Calm,Calm,-,N/A,,Clear,0,2013-07-19 00:15:00
8:35 PM,78.8,75.2,89,30.07,10.0,Calm,Calm,-,N/A,,Clear,0,2013-07-19 00:35:00
8:55 PM,78.8,75.2,89,30.08,10.0,Calm,Calm,-,N/A,,Clear,0,2013-07-19 00:55:00
9:15 PM,78.8,75.2,89,30.08,10.0,Calm,Calm,-,N/A,,Clear,0,2013-07-19 01:15:00
9:35 PM,77.0,77.0,100,30.09,10.0,Calm,Calm,-,N/A,,Clear,0,2013-07-19 01:35:00
9:55 PM,77.0,77.0,100,30.09,7.0,Calm,Calm,-,N/A,,Clear,0,2013-07-19 01:55:00
10:15 PM,77.0,77.0,100,30.10,10.0,Calm,Calm,-,N/A,,Clear,0,2013-07-19 02:15:00
10:35 PM,77.0,77.0,100,30.10,7.0,Calm,Calm,-,N/A,,Clear,0,2013-07-19 02:35:00
10:55 PM,77.0,77.0,100,30.11,10.0,SSE,4.6,-,N/A,,Mostly Cloudy,160,2013-07-19 02:55:00
11:15 PM,77.0,77.0,100,30.11,10.0,Calm,Calm,-,N/A,,Overcast,0,2013-07-19 03:15:00
11:35 PM,77.0,77.0,100,30.11,10.0,South,3.5,-,N/A,,Scattered Clouds,190,2013-07-19 03:35:00
11:55 PM,78.8,73.4,83,30.11,10.0,SSW,3.5,-,N/A,,Clear,210,2013-07-19 03:55:00